• In Uzbekistan
  • List of Countries
  • For 7 days
  • Water Temperature
  • Satellite Maps
  • Weather Map
  • Weather Widgets
  • user-avatar
    Login

    Hourly Weather Shusha

    Today, 21 August, Tuesday

    Time Temperature Precipitation Wind Pressure Humidity
    00:00 +14°C° 0 mm 1 mps 661 mmHg 79%
    01:00 +14°C° 0 mm 1 mps 661 mmHg 79%
    02:00 +14°C° 0 mm 1 mps 661 mmHg 79%
    03:00 +14°C° 0 mm 1 mps 661 mmHg 81%
    04:00 +14°C° 0 mm 1 mps 661 mmHg 80%
    05:00 +14°C° 0 mm 1 mps 661 mmHg 78%
    06:00 +14°C° 0 mm 1 mps 661 mmHg 77%
    07:00 +16°C° 0 mm 1 mps 662 mmHg 70%
    08:00 +18°C° 0 mm 2 mps 662 mmHg 64%
    09:00 +20°C° 0 mm 2 mps 662 mmHg 57%
    10:00 +21°C° 0 mm 2 mps 662 mmHg 53%
    11:00 +22°C° 0 mm 3 mps 662 mmHg 49%
    12:00 +25°C° 0 mm 3 mps 662 mmHg 45%
    13:00 +25°C° 0 mm 3 mps 662 mmHg 45%
    14:00 +25°C° 0 mm 3 mps 662 mmHg 44%
    15:00 +26°C° 0 mm 3 mps 661 mmHg 43%
    16:00 +25°C° 0 mm 3 mps 661 mmHg 45%
    17:00 +24°C° 0 mm 3 mps 661 mmHg 48%
    18:00 +24°C° 0 mm 3 mps 661 mmHg 51%
    19:00 +21°C° 0 mm 2 mps 661 mmHg 57%
    20:00 +20°C° 0 mm 2 mps 660 mmHg 63%
    21:00 +19°C° 0 mm 1 mps 660 mmHg 69%
    22:00 +19°C° 0 mm 1 mps 660 mmHg 70%
    23:00 +18°C° 0 mm 1 mps 660 mmHg 71%

    Tomorrow, 22 August, Wednesday

    Time Temperature Precipitation Wind Pressure Humidity
    00:00 +18°C° 0 mm 1 mps 660 mmHg 72%
    01:00 +18°C° 0 mm 1 mps 660 mmHg 73%
    02:00 +16°C° 0 mm 1 mps 660 mmHg 74%
    03:00 +16°C° 0 mm 1 mps 659 mmHg 75%
    04:00 +16°C° 0 mm 1 mps 660 mmHg 74%
    05:00 +16°C° 0 mm 1 mps 660 mmHg 73%
    06:00 +16°C° 0 mm 1 mps 660 mmHg 72%
    07:00 +19°C° 0 mm 1 mps 660 mmHg 64%
    08:00 +20°C° 0 mm 2 mps 661 mmHg 56%
    09:00 +23°C° 0 mm 2 mps 661 mmHg 49%
    10:00 +24°C° 0 mm 2 mps 661 mmHg 45%
    11:00 +26°C° 0 mm 3 mps 661 mmHg 42%
    12:00 +27°C° 0 mm 3 mps 661 mmHg 39%
    13:00 +27°C° 0 mm 3 mps 661 mmHg 38%
    14:00 +28°C° 0 mm 3 mps 660 mmHg 38%
    15:00 +28°C° 0 mm 3 mps 660 mmHg 37%
    16:00 +27°C° 0 mm 3 mps 660 mmHg 41%
    17:00 +26°C° 0 mm 3 mps 660 mmHg 44%
    18:00 +25°C° 0 mm 2 mps 660 mmHg 47%
    19:00 +24°C° 0 mm 2 mps 660 mmHg 51%
    20:00 +21°C° 0 mm 2 mps 660 mmHg 56%
    21:00 +21°C° 0 mm 1 mps 660 mmHg 61%
    22:00 +20°C° 0 mm 1 mps 660 mmHg 62%
    23:00 +20°C° 0 mm 1 mps 660 mmHg 64%

    Day after tomorrow, 23 August, Thursday

    Time Temperature Precipitation Wind Pressure Humidity
    00:00 +19°C° 0 mm 1 mps 660 mmHg 65%
    01:00 +19°C° 0 mm 1 mps 660 mmHg 67%
    02:00 +18°C° 0 mm 1 mps 660 mmHg 68%
    03:00 +18°C° 0 mm 1 mps 660 mmHg 69%
    04:00 +18°C° 0 mm 1 mps 660 mmHg 68%
    05:00 +18°C° 0 mm 1 mps 660 mmHg 66%
    06:00 +18°C° 0 mm 1 mps 661 mmHg 65%
    07:00 +19°C° 0 mm 2 mps 661 mmHg 55%
    08:00 +23°C° 0 mm 2 mps 662 mmHg 46%
    09:00 +25°C° 0 mm 2 mps 662 mmHg 37%
    10:00 +26°C° 0 mm 3 mps 662 mmHg 34%
    11:00 +27°C° 0 mm 3 mps 662 mmHg 32%
    12:00 +28°C° 0 mm 4 mps 662 mmHg 29%
    13:00 +28°C° 0 mm 4 mps 662 mmHg 29%
    14:00 +28°C° 0 mm 4 mps 662 mmHg 29%
    15:00 +29°C° 0 mm 4 mps 662 mmHg 29%
    16:00 +28°C° 0 mm 4 mps 661 mmHg 32%
    17:00 +27°C° 0 mm 4 mps 661 mmHg 35%
    18:00 +26°C° 0 mm 4 mps 661 mmHg 39%
    19:00 +24°C° 0 mm 3 mps 661 mmHg 44%
    20:00 +21°C° 0 mm 3 mps 661 mmHg 49%
    21:00 +19°C° 0 mm 2 mps 661 mmHg 54%
    22:00 +19°C° 0 mm 2 mps 661 mmHg 56%
    23:00 +18°C° 0 mm 2 mps 661 mmHg 57%

    24 August, Friday

    Time Temperature Precipitation Wind Pressure Humidity
    00:00 +18°C° 0 mm 2 mps 661 mmHg 59%
    01:00 +17°C° 0 mm 2 mps 661 mmHg 60%
    02:00 +17°C° 0 mm 2 mps 661 mmHg 61%
    03:00 +17°C° 0 mm 2 mps 661 mmHg 62%
    04:00 +17°C° 0 mm 2 mps 661 mmHg 60%
    05:00 +18°C° 0 mm 1 mps 661 mmHg 58%
    06:00 +18°C° 0 mm 1 mps 661 mmHg 56%
    07:00 +19°C° 0 mm 2 mps 661 mmHg 49%
    08:00 +21°C° 0 mm 2 mps 662 mmHg 42%
    09:00 +24°C° 0 mm 3 mps 662 mmHg 36%
    10:00 +25°C° 0 mm 3 mps 662 mmHg 34%
    11:00 +26°C° 0 mm 4 mps 662 mmHg 32%
    12:00 +27°C° 0 mm 4 mps 662 mmHg 30%
    13:00 +28°C° 0 mm 4 mps 662 mmHg 30%
    14:00 +28°C° 0 mm 4 mps 661 mmHg 30%
    15:00 +28°C° 0 mm 4 mps 661 mmHg 30%
    16:00 +27°C° 0 mm 4 mps 661 mmHg 33%
    17:00 +26°C° 0 mm 4 mps 661 mmHg 36%
    18:00 +25°C° 0 mm 4 mps 660 mmHg 39%
    19:00 +22°C° 0 mm 3 mps 660 mmHg 45%
    20:00 +20°C° 0 mm 3 mps 660 mmHg 51%
    21:00 +18°C° 0 mm 2 mps 660 mmHg 57%
    22:00 +18°C° 0 mm 2 mps 660 mmHg 58%
    23:00 +18°C° 0 mm 2 mps 660 mmHg 60%

    25 August, Saturday

    Time Temperature Precipitation Wind Pressure Humidity
    00:00 +17°C° 0 mm 2 mps 660 mmHg 62%
    01:00 +18°C° 0 mm 1 mps 660 mmHg 63%
    02:00 +16°C° 0 mm 1 mps 660 mmHg 64%
    03:00 +16°C° 0 mm 1 mps 659 mmHg 64%
    04:00 +16°C° 0 mm 1 mps 659 mmHg 64%
    05:00 +16°C° 0 mm 1 mps 660 mmHg 64%
    06:00 +18°C° 0 mm 1 mps 660 mmHg 63%
    07:00 +19°C° 0 mm 2 mps 660 mmHg 55%
    08:00 +21°C° 0 mm 2 mps 661 mmHg 46%
    09:00 +24°C° 0 mm 3 mps 661 mmHg 38%
    10:00 +25°C° 0 mm 3 mps 661 mmHg 35%
    11:00 +26°C° 0 mm 3 mps 661 mmHg 32%
    12:00 +28°C° 0 mm 4 mps 661 mmHg 29%
    13:00 +28°C° 0 mm 4 mps 661 mmHg 28%
    14:00 +28°C° 0 mm 4 mps 661 mmHg 27%
    15:00 +29°C° 0 mm 4 mps 660 mmHg 27%
    16:00 +27°C° 0 mm 4 mps 660 mmHg 29%
    17:00 +26°C° 0 mm 4 mps 660 mmHg 32%
    18:00 +25°C° 0 mm 4 mps 660 mmHg 35%
    19:00 +22°C° 0 mm 3 mps 660 mmHg 39%
    20:00 +20°C° 0 mm 3 mps 660 mmHg 44%
    21:00 +18°C° 0 mm 2 mps 660 mmHg 49%
    22:00 +18°C° 0 mm 2 mps 660 mmHg 50%
    23:00 +17°C° 0 mm 2 mps 660 mmHg 52%

    26 August, Sunday

    Time Temperature Precipitation Wind Pressure Humidity
    00:00 +17°C° 0 mm 2 mps 659 mmHg 53%
    01:00 +18°C° 0 mm 1 mps 659 mmHg 54%
    02:00 +16°C° 0 mm 1 mps 659 mmHg 55%
    03:00 +16°C° 0 mm 1 mps 659 mmHg 56%
    04:00 +16°C° 0 mm 1 mps 659 mmHg 56%
    05:00 +16°C° 0 mm 1 mps 659 mmHg 55%
    06:00 +16°C° 0 mm 1 mps 659 mmHg 55%
    07:00 +19°C° 0 mm 1 mps 660 mmHg 47%
    08:00 +21°C° 0 mm 2 mps 660 mmHg 40%
    09:00 +24°C° 0 mm 2 mps 660 mmHg 32%
    10:00 +25°C° 0 mm 3 mps 660 mmHg 30%
    11:00 +26°C° 0 mm 3 mps 660 mmHg 27%
    12:00 +28°C° 0 mm 3 mps 660 mmHg 25%
    13:00 +28°C° 0 mm 3 mps 659 mmHg 25%
    14:00 +29°C° 0 mm 3 mps 659 mmHg 24%
    15:00 +29°C° 0 mm 3 mps 659 mmHg 24%
    16:00 +28°C° 0 mm 3 mps 658 mmHg 27%
    17:00 +27°C° 0 mm 3 mps 658 mmHg 29%
    18:00 +26°C° 0 mm 3 mps 658 mmHg 32%
    19:00 +24°C° 0 mm 2 mps 658 mmHg 37%
    20:00 +21°C° 0 mm 2 mps 658 mmHg 42%
    21:00 +19°C° 0 mm 2 mps 657 mmHg 47%
    22:00 +18°C° 0 mm 2 mps 657 mmHg 49%
    23:00 +19°C° 0 mm 1 mps 657 mmHg 50%
    Show more